Weather History for Long Prairie, MN

Change the Weather History Date:

Sunday, November 25, 2012

  Actual Average (KAXN) Record (KAXN)
Temperature  
Mean Temperature 19 °F -  
Max Temperature 28 °F 30 °F 51 °F (1960)
Min Temperature 10 °F 18 °F -13 °F (1977)
Degree Days  
Heating Degree Days 46    
Moisture  
Dew Point 17 °F    
Average Humidity 78    
Maximum Humidity 93    
Minimum Humidity 59    
Precipitation  
Precipitation 0.00 in - - ()
Sea Level Pressure  
Sea Level Pressure 29.96 in    
Wind  
Wind Speed 11 mph (WNW)    
Max Wind Speed 21 mph    
Max Gust Speed 26 mph    
Visibility 10 miles    
Events Rain    
Averages and records for this station are not official NWS values.
T = Trace of Precipitation, MM = Missing Value Source: NWS Daily Summary

Daily Weather History Graph

Daily Weather History Graph

Search for Another Location

Airport:

Trip Planner

Search our weather history database for the weather conditions in past years. The results will help you decide how hot, cold, wet, or windy it might be!

Date:

Astronomy

Nov. 25, 2012 Rise Set
Actual Time 7:33 AM CST 4:39 PM CST
Civil Twilight 7:00 AM CST 5:12 PM CST
Nautical Twilight 6:23 AM CST 5:49 PM CST
Astronomical Twilight 5:47 AM CST 6:25 PM CST
Moon 3:01 PM CST (11/25) 4:42 AM CST (11/25)
Length of Visible Light 10h 11m
Length of Day
9h 05m
Waxing Gibbous, 93% of the Moon is Illuminated
Nov 25
Waxing Gibbous
Nov 28
Full
Dec 6
Last Quarter
Dec 13
New
Dec 19
First Quarter

Hourly Weather History & Observations

Time (CST) Temp. Windchill Dew Point Humidity Pressure Visibility Wind Dir Wind Speed Gust Speed Precip Events Conditions
12:15 AM 26.6 °F 18.2 °F 19.4 °F 74% 29.80 in 10.0 mi WNW 8.1 mph - N/A   Overcast
12:35 AM 26.6 °F 20.0 °F 21.2 °F 80% 29.81 in 10.0 mi West 5.8 mph - N/A   Overcast
1:15 AM 28.4 °F 19.1 °F 21.2 °F 74% 29.81 in 10.0 mi NW 10.4 mph 16.1 mph N/A   Overcast
1:35 AM 28.4 °F 19.7 °F 23.0 °F 80% 29.81 in 10.0 mi NW 9.2 mph - N/A   Overcast
1:55 AM 28.4 °F 18.5 °F 23.0 °F 80% 29.82 in 10.0 mi WNW 11.5 mph - N/A   Overcast
2:15 AM 28.4 °F 17.0 °F 23.0 °F 80% 29.83 in 10.0 mi NW 15.0 mph - N/A   Overcast
2:35 AM 26.6 °F 13.1 °F 23.0 °F 86% 29.84 in 10.0 mi West 19.6 mph 24.2 mph N/A   Overcast
2:55 AM 26.6 °F 12.7 °F 23.0 °F 86% 29.85 in 10.0 mi NW 20.7 mph - N/A   Overcast
3:15 AM 26.6 °F 15.2 °F 21.2 °F 80% 29.85 in 10.0 mi NW 13.8 mph - N/A   Overcast
3:35 AM 26.6 °F 16.2 °F 21.2 °F 80% 29.87 in 10.0 mi WNW 11.5 mph 17.3 mph N/A   Overcast
3:55 AM 26.6 °F 16.8 °F 21.2 °F 80% 29.87 in 10.0 mi WNW 10.4 mph - N/A   Overcast
4:15 AM 24.8 °F 12.9 °F 21.2 °F 86% 29.87 in 10.0 mi NW 13.8 mph - N/A   Overcast
4:35 AM 23.0 °F 10.1 °F 19.4 °F 86% 29.88 in 10.0 mi NW 15.0 mph - N/A   Overcast
4:55 AM 23.0 °F 9.6 °F 19.4 °F 86% 29.88 in 10.0 mi WNW 16.1 mph - N/A   Overcast
5:15 AM 23.0 °F 13.1 °F 19.4 °F 86% 29.89 in 10.0 mi WNW 9.2 mph - N/A   Overcast
5:35 AM 23.0 °F 10.1 °F 19.4 °F 86% 29.89 in 10.0 mi WNW 15.0 mph - N/A   Overcast
5:55 AM 23.0 °F 12.4 °F 19.4 °F 86% 29.89 in 10.0 mi NW 10.4 mph - N/A   Overcast
6:15 AM 23.0 °F 13.1 °F 19.4 °F 86% 29.90 in 10.0 mi WNW 9.2 mph - N/A   Overcast
6:35 AM 23.0 °F 10.6 °F 19.4 °F 86% 29.90 in 10.0 mi WNW 13.8 mph - N/A   Overcast
6:55 AM 21.2 °F 9.5 °F 19.4 °F 93% 29.91 in 10.0 mi WNW 11.5 mph - N/A   Overcast
7:15 AM 21.2 °F 10.9 °F 19.4 °F 93% 29.91 in 10.0 mi WNW 9.2 mph - N/A   Overcast
7:35 AM 21.2 °F 9.5 °F 19.4 °F 93% 29.92 in 10.0 mi WNW 11.5 mph - N/A   Overcast
7:55 AM 21.2 °F 8.9 °F 17.6 °F 86% 29.92 in 10.0 mi WNW 12.7 mph - N/A   Overcast
8:15 AM 21.2 °F 11.7 °F 19.4 °F 93% 29.93 in 10.0 mi West 8.1 mph - N/A   Overcast
8:35 AM 21.2 °F 12.6 °F 19.4 °F 93% 29.93 in 10.0 mi WNW 6.9 mph - N/A   Overcast
9:15 AM 23.0 °F 13.1 °F 19.4 °F 86% 29.95 in 10.0 mi West 9.2 mph - N/A   Overcast
9:35 AM 23.0 °F 13.1 °F 19.4 °F 86% 29.95 in 10.0 mi West 9.2 mph - N/A   Overcast
9:55 AM 23.0 °F 13.1 °F 19.4 °F 86% 29.95 in 10.0 mi WSW 9.2 mph - N/A   Overcast
10:15 AM 23.0 °F 11.1 °F 17.6 °F 80% 29.97 in 10.0 mi West 12.7 mph - N/A   Overcast
10:35 AM 23.0 °F 12.4 °F 19.4 °F 86% 29.97 in 10.0 mi West 10.4 mph - N/A   Overcast
10:55 AM 24.8 °F 14.0 °F 19.4 °F 80% 29.97 in 10.0 mi West 11.5 mph - N/A   Overcast
11:15 AM 24.8 °F 15.3 °F 19.4 °F 80% 29.96 in 10.0 mi WSW 9.2 mph - N/A   Overcast
11:35 AM 24.8 °F 14.6 °F 19.4 °F 80% 29.96 in 10.0 mi West 10.4 mph 18.4 mph N/A   Overcast
11:55 AM 26.6 °F 16.8 °F 19.4 °F 74% 29.96 in 10.0 mi West 10.4 mph - N/A   Overcast
12:15 PM 26.6 °F 16.2 °F 19.4 °F 74% 29.95 in 10.0 mi WSW 11.5 mph 17.3 mph N/A   Overcast
12:35 PM 26.6 °F 15.7 °F 21.2 °F 80% 29.95 in 10.0 mi West 12.7 mph - N/A   Overcast
12:55 PM 26.6 °F 16.8 °F 21.2 °F 80% 29.94 in 10.0 mi SW 10.4 mph - N/A   Overcast
1:15 PM 26.6 °F 17.5 °F 21.2 °F 80% 29.95 in 10.0 mi West 9.2 mph - N/A   Overcast
1:35 PM 26.6 °F 16.8 °F 21.2 °F 80% 29.95 in 10.0 mi West 10.4 mph 17.3 mph N/A   Overcast
1:55 PM 26.6 °F 17.5 °F 21.2 °F 80% 29.95 in 10.0 mi West 9.2 mph - N/A   Overcast
2:15 PM 26.6 °F 16.8 °F 21.2 °F 80% 29.95 in 10.0 mi West 10.4 mph 17.3 mph N/A   Overcast
2:55 PM 28.4 °F 19.7 °F 21.2 °F 74% 29.95 in 10.0 mi West 9.2 mph - N/A   Overcast
3:15 PM 28.4 °F 19.7 °F 21.2 °F 74% 29.95 in 10.0 mi West 9.2 mph - N/A Rain Light Freezing Rain
3:35 PM 28.4 °F 19.7 °F 23.0 °F 80% 29.95 in 10.0 mi West 9.2 mph - N/A Rain Light Freezing Rain
3:55 PM 28.4 °F 20.4 °F 23.0 °F 80% 29.96 in 10.0 mi West 8.1 mph - N/A Rain Light Freezing Rain
4:15 PM 28.4 °F 19.7 °F 23.0 °F 80% 29.97 in 10.0 mi West 9.2 mph - N/A Rain Light Freezing Rain
4:35 PM 28.4 °F 18.5 °F 23.0 °F 80% 29.98 in 10.0 mi West 11.5 mph - N/A Rain Light Freezing Rain
4:55 PM 26.6 °F 15.2 °F 17.6 °F 69% 29.99 in 10.0 mi WNW 13.8 mph 23.0 mph N/A Rain Light Freezing Rain
5:15 PM 26.6 °F 13.1 °F 14.0 °F 59% 30.00 in 10.0 mi WNW 19.6 mph 26.5 mph N/A   Overcast
5:35 PM 24.8 °F 12.4 °F 12.2 °F 59% 30.01 in 10.0 mi WNW 15.0 mph 21.9 mph N/A   Overcast
5:55 PM 24.8 °F 13.4 °F 14.0 °F 64% 30.02 in 10.0 mi West 12.7 mph 18.4 mph N/A   Overcast
6:15 PM 23.0 °F 9.6 °F 15.8 °F 74% 30.03 in 10.0 mi WNW 16.1 mph 19.6 mph N/A   Overcast
6:35 PM 23.0 °F 10.1 °F 14.0 °F 68% 30.04 in 10.0 mi WNW 15.0 mph 21.9 mph N/A   Overcast
6:55 PM 21.2 °F 10.1 °F 12.2 °F 68% 30.05 in 10.0 mi WNW 10.4 mph - N/A   Scattered Clouds
7:15 PM 21.2 °F 9.5 °F 14.0 °F 74% 30.06 in 10.0 mi WNW 11.5 mph - N/A   Scattered Clouds
7:35 PM 19.4 °F 9.5 °F 14.0 °F 80% 30.07 in 10.0 mi WNW 8.1 mph - N/A   Mostly Cloudy
7:55 PM 21.2 °F 9.5 °F 14.0 °F 74% 30.07 in 10.0 mi WNW 11.5 mph - N/A   Overcast
8:15 PM 21.2 °F 10.1 °F 12.2 °F 68% 30.08 in 10.0 mi NW 10.4 mph - N/A   Overcast
8:35 PM 19.4 °F 7.2 °F 10.4 °F 68% 30.09 in 10.0 mi NW 11.5 mph 17.3 mph N/A   Overcast
8:55 PM 19.4 °F 6.0 °F 8.6 °F 63% 30.09 in 10.0 mi NW 13.8 mph 20.7 mph N/A   Overcast
9:15 PM 17.6 °F 5.7 °F 8.6 °F 68% 30.11 in 10.0 mi NW 10.4 mph - N/A   Overcast
9:35 PM 17.6 °F 2.7 °F 8.6 °F 68% 30.11 in 10.0 mi NW 16.1 mph 24.2 mph N/A   Overcast
9:55 PM 14.0 °F -1.4 °F 5.0 °F 67% 30.13 in 10.0 mi NW 15.0 mph 19.6 mph N/A   Scattered Clouds
10:15 PM 12.2 °F -1.8 °F 5.0 °F 73% 30.14 in 10.0 mi NW 11.5 mph - N/A   Clear
10:35 PM 10.4 °F -6.0 °F 3.2 °F 73% 30.16 in 10.0 mi NW 15.0 mph - N/A   Clear
10:55 PM 10.4 °F -4.1 °F 3.2 °F 73% 30.16 in 10.0 mi NW 11.5 mph 16.1 mph N/A   Clear
11:15 PM 10.4 °F -4.8 °F 3.2 °F 73% 30.17 in 10.0 mi NW 12.7 mph 16.1 mph N/A   Clear
11:35 PM 10.4 °F -3.3 °F 1.4 °F 67% 30.18 in 10.0 mi NW 10.4 mph - N/A   Clear